When you browse on this site, cookies collect data to enhance your experience and personalize the content and advertising you see.
Visit our Privacy Policy to learn more. By continuing to use the site, you agree to this use of cookies and data.
  • In Portugal
  • List of Countries
  • For 7 days
  • Water Temperature
  • Satellite Maps
  • Weather Map
  • Weather Widgets
  • user-avatar
    Login

    Hourly Weather Kamionka

    Today, 22 February, Friday

    Time Temperature Precipitation Wind Pressure Humidity
    00:00 +2°C° 0.7 mm 3 mps 707 mmHg 94%
    01:00 +2°C° 0.7 mm 3 mps 707 mmHg 95%
    02:00 +2°C° 0.9 mm 3 mps 707 mmHg 95%
    03:00 +2°C° 0.9 mm 3 mps 707 mmHg 96%
    04:00 +2°C° 0.9 mm 3 mps 708 mmHg 97%
    05:00 0°C° 0.5 mm 4 mps 708 mmHg 96%
    06:00 0°C° 0.5 mm 5 mps 709 mmHg 95%
    07:00 -2°C° 0.5 mm 6 mps 710 mmHg 94%
    08:00 -3°C° 0.1 mm 6 mps 711 mmHg 91%
    09:00 -4°C° 0.1 mm 6 mps 712 mmHg 88%
    10:00 -5°C° 0.1 mm 6 mps 713 mmHg 85%
    11:00 -5°C° 0 mm 6 mps 714 mmHg 77%
    12:00 -4°C° 0 mm 6 mps 715 mmHg 69%
    13:00 -4°C° 0 mm 6 mps 716 mmHg 60%
    14:00 -4°C° 0 mm 5 mps 716 mmHg 59%
    15:00 -5°C° 0 mm 5 mps 717 mmHg 57%
    16:00 -5°C° 0 mm 5 mps 717 mmHg 55%
    17:00 -5°C° 0 mm 4 mps 718 mmHg 58%
    18:00 -7°C° 0 mm 4 mps 718 mmHg 60%
    19:00 -7°C° 0 mm 3 mps 719 mmHg 63%
    20:00 -7°C° 0 mm 3 mps 719 mmHg 63%
    21:00 -8°C° 0 mm 3 mps 720 mmHg 63%
    22:00 -8°C° 0 mm 3 mps 720 mmHg 63%
    23:00 -7°C° 0 mm 2 mps 720 mmHg 62%

    Tomorrow, 23 February, Saturday

    Time Temperature Precipitation Wind Pressure Humidity
    00:00 -7°C° 0 mm 2 mps 721 mmHg 62%
    01:00 -7°C° 0 mm 2 mps 721 mmHg 61%
    02:00 -7°C° 0 mm 2 mps 720 mmHg 60%
    03:00 -7°C° 0 mm 1 mps 720 mmHg 60%
    04:00 -7°C° 0 mm 1 mps 720 mmHg 59%
    05:00 -7°C° 0 mm 1 mps 720 mmHg 58%
    06:00 -7°C° 0 mm 1 mps 720 mmHg 58%
    07:00 -7°C° 0 mm 0 mps 720 mmHg 57%
    08:00 -6°C° 0 mm 1 mps 721 mmHg 50%
    09:00 -4°C° 0 mm 1 mps 721 mmHg 42%
    10:00 -3°C° 0 mm 1 mps 722 mmHg 35%
    11:00 -2°C° 0 mm 1 mps 721 mmHg 32%
    12:00 -3°C° 0 mm 2 mps 721 mmHg 30%
    13:00 -2°C° 0 mm 2 mps 721 mmHg 28%
    14:00 -2°C° 0 mm 2 mps 721 mmHg 30%
    15:00 0°C° 0 mm 1 mps 721 mmHg 32%
    16:00 0°C° 0 mm 1 mps 720 mmHg 34%
    17:00 -1°C° 0 mm 1 mps 720 mmHg 38%
    18:00 -2°C° 0 mm 1 mps 720 mmHg 41%
    19:00 -3°C° 0 mm 1 mps 719 mmHg 45%
    20:00 -3°C° 0 mm 1 mps 719 mmHg 45%
    21:00 -3°C° 0 mm 1 mps 720 mmHg 44%
    22:00 -3°C° 0 mm 1 mps 720 mmHg 43%
    23:00 -3°C° 0 mm 1 mps 719 mmHg 42%

    Day after tomorrow, 24 February, Sunday

    Time Temperature Precipitation Wind Pressure Humidity
    00:00 -2°C° 0 mm 1 mps 719 mmHg 40%
    01:00 -2°C° 0 mm 1 mps 719 mmHg 39%
    02:00 -2°C° 0 mm 1 mps 719 mmHg 39%
    03:00 -2°C° 0 mm 1 mps 719 mmHg 39%
    04:00 -3°C° 0 mm 0 mps 719 mmHg 38%
    05:00 -3°C° 0 mm 0 mps 719 mmHg 38%
    06:00 -3°C° 0 mm 0 mps 719 mmHg 38%
    07:00 -3°C° 0 mm 0 mps 719 mmHg 38%
    08:00 0°C° 0 mm 1 mps 719 mmHg 36%
    09:00 +1°C° 0 mm 1 mps 719 mmHg 34%
    10:00 +3°C° 0 mm 1 mps 720 mmHg 31%
    11:00 +4°C° 0 mm 1 mps 720 mmHg 33%
    12:00 +5°C° 0 mm 1 mps 720 mmHg 34%
    13:00 +5°C° 0 mm 2 mps 720 mmHg 36%
    14:00 +6°C° 0 mm 1 mps 719 mmHg 42%
    15:00 +6°C° 0 mm 1 mps 719 mmHg 48%
    16:00 +5°C° 0 mm 1 mps 719 mmHg 55%
    17:00 +4°C° 0 mm 1 mps 719 mmHg 57%
    18:00 +3°C° 0 mm 1 mps 719 mmHg 60%
    19:00 +1°C° 0 mm 1 mps 719 mmHg 63%
    20:00 +1°C° 0 mm 1 mps 719 mmHg 63%
    21:00 +1°C° 0 mm 1 mps 719 mmHg 63%
    22:00 +1°C° 0 mm 1 mps 719 mmHg 64%
    23:00 +1°C° 0 mm 1 mps 719 mmHg 63%

    25 February, Monday

    Time Temperature Precipitation Wind Pressure Humidity
    00:00 +1°C° 0 mm 1 mps 719 mmHg 63%
    01:00 +1°C° 0 mm 1 mps 719 mmHg 63%
    02:00 +1°C° 0 mm 1 mps 719 mmHg 63%
    03:00 +1°C° 0 mm 1 mps 719 mmHg 63%
    04:00 +1°C° 0 mm 1 mps 719 mmHg 64%
    05:00 +1°C° 0 mm 1 mps 719 mmHg 64%
    06:00 +1°C° 0 mm 1 mps 719 mmHg 64%
    07:00 +1°C° 0 mm 1 mps 719 mmHg 64%
    08:00 +3°C° 0 mm 1 mps 719 mmHg 61%
    09:00 +4°C° 0 mm 2 mps 720 mmHg 58%
    10:00 +5°C° 0 mm 2 mps 720 mmHg 55%
    11:00 +6°C° 0 mm 2 mps 720 mmHg 54%
    12:00 +7°C° 0 mm 2 mps 720 mmHg 54%
    13:00 +8°C° 0 mm 2 mps 720 mmHg 53%
    14:00 +8°C° 0 mm 2 mps 719 mmHg 57%
    15:00 +7°C° 0 mm 2 mps 719 mmHg 60%
    16:00 +8°C° 0 mm 1 mps 719 mmHg 63%
    17:00 +6°C° 0 mm 1 mps 718 mmHg 67%
    18:00 +5°C° 0 mm 1 mps 718 mmHg 70%
    19:00 +4°C° 0 mm 1 mps 718 mmHg 74%
    20:00 +3°C° 0 mm 1 mps 718 mmHg 75%
    21:00 +3°C° 0 mm 1 mps 718 mmHg 75%
    22:00 +3°C° 0 mm 1 mps 718 mmHg 75%
    23:00 +3°C° 0 mm 1 mps 717 mmHg 75%

    26 February, Tuesday

    Time Temperature Precipitation Wind Pressure Humidity
    00:00 +3°C° 0 mm 1 mps 717 mmHg 74%
    01:00 +3°C° 0 mm 1 mps 717 mmHg 74%
    02:00 +3°C° 0 mm 1 mps 716 mmHg 74%
    03:00 +2°C° 0 mm 2 mps 716 mmHg 75%
    04:00 +2°C° 0 mm 2 mps 716 mmHg 75%
    05:00 +1°C° 0 mm 2 mps 715 mmHg 77%
    06:00 +1°C° 0 mm 2 mps 715 mmHg 78%
    07:00 +1°C° 0 mm 2 mps 715 mmHg 80%
    08:00 +3°C° 0 mm 2 mps 715 mmHg 73%
    09:00 +4°C° 0 mm 3 mps 715 mmHg 67%
    10:00 +7°C° 0 mm 3 mps 715 mmHg 60%
    11:00 +6°C° 0 mm 4 mps 715 mmHg 56%
    12:00 +7°C° 0 mm 4 mps 715 mmHg 52%
    13:00 +8°C° 0 mm 4 mps 715 mmHg 47%
    14:00 +8°C° 0 mm 4 mps 715 mmHg 53%
    15:00 +8°C° 0 mm 3 mps 714 mmHg 59%
    16:00 +7°C° 0 mm 3 mps 714 mmHg 66%
    17:00 +5°C° 0 mm 3 mps 714 mmHg 71%
    18:00 +5°C° 0 mm 2 mps 714 mmHg 76%
    19:00 +4°C° 0 mm 2 mps 714 mmHg 81%
    20:00 +4°C° 0 mm 2 mps 714 mmHg 85%
    21:00 +3°C° 0 mm 2 mps 714 mmHg 88%
    22:00 +3°C° 0 mm 1 mps 714 mmHg 91%
    23:00 +3°C° 0 mm 1 mps 714 mmHg 92%

    27 February, Wednesday

    Time Temperature Precipitation Wind Pressure Humidity
    00:00 +2°C° 0 mm 1 mps 714 mmHg 92%
    01:00 +2°C° 0 mm 1 mps 714 mmHg 93%
    02:00 +2°C° 0 mm 1 mps 713 mmHg 91%
    03:00 +2°C° 0 mm 1 mps 713 mmHg 88%
    04:00 +2°C° 0 mm 1 mps 713 mmHg 86%
    05:00 +1°C° 0 mm 1 mps 713 mmHg 82%
    06:00 +1°C° 0 mm 1 mps 713 mmHg 78%
    07:00 +1°C° 0 mm 1 mps 713 mmHg 74%
    08:00 +3°C° 0 mm 1 mps 713 mmHg 66%
    09:00 +5°C° 0 mm 1 mps 713 mmHg 58%
    10:00 +7°C° 0 mm 1 mps 713 mmHg 49%
    11:00 +9°C° 0 mm 1 mps 713 mmHg 47%
    12:00 +9°C° 0 mm 2 mps 713 mmHg 45%
    13:00 +10°C° 0 mm 2 mps 712 mmHg 42%
    14:00 +10°C° 0 mm 2 mps 712 mmHg 49%
    15:00 +9°C° 0 mm 2 mps 711 mmHg 56%
    16:00 +9°C° 0 mm 2 mps 710 mmHg 63%
    17:00 +8°C° 0 mm 2 mps 710 mmHg 71%
    18:00 +6°C° 0 mm 2 mps 709 mmHg 79%
    19:00 +5°C° 0 mm 2 mps 708 mmHg 87%
    20:00 +5°C° 0 mm 2 mps 708 mmHg 88%
    21:00 +4°C° 0 mm 3 mps 707 mmHg 89%
    22:00 +4°C° 0 mm 3 mps 707 mmHg 90%
    23:00 +4°C° 0 mm 3 mps 706 mmHg 88%
    Show more